Hourly Data Report for September 08, 2017

All times are specified in Local Standard Time (LST). Add 1 hour to adjust for Daylight Saving Time where and when it is observed.

COMOX A
BRITISH COLUMBIA

49°43'00.000" N
124°54'00.000" W
25.60 m
1021830
71893
YQQ

Download Data

Hourly Data (September 2017)
Hourly Data Report for September 8, 2017
Temp Definition
°C
Dew Point Temp Definition
°C
Rel Hum Definition
%
Wind Dir Definition
10's deg

Wind Spd Definition
km/h
Visibility Definition
km
Stn Press Definition
kPa
Hmdx Definition


Wind Chill Definition


Weather Definition


TIME
00:00 15.8 13.6 87 34 15 32.2 100.96     Mostly Cloudy
01:00 15.9 13.2 84 31 6 32.2 100.99     Mostly Cloudy
02:00 15.6 13.4 87 22 4 32.2 101.02     Mostly Cloudy
03:00 14.7 13.3 91 29 4 32.2 101.03     Mainly Clear
04:00 14.6 12.6 88 33 6 32.2 101.03     Mostly Cloudy
05:00 14.5 12.6 88   0 32.2 101.05     Cloudy
06:00 15.1 12.9 87 33 7 32.2 101.08     Cloudy
07:00 15.5 12.9 84 31 4 32.2 101.13     Cloudy
08:00 15.9 12.2 79 33 9 32.2 101.17     Cloudy
09:00 16.2 12.6 79 34 7 32.2 101.20     Mostly Cloudy
10:00 17.5 12.9 74 1 15 32.2 101.17     Mostly Cloudy
11:00 17.6 12.8 73 36 13 32.2 101.14     Mostly Cloudy
12:00 18.8 12.5 67 1 17 32.2 101.11     Mostly Cloudy
13:00 19.9 12.6 63 3 15 32.2 101.06     Mainly Clear
14:00 20.5 12.6 60 3 9 32.2 101.01     Clear
15:00 19.8 12.9 64 8 7 32.2 100.96     Clear
16:00 20.1 13.0 64 13 7 32.2 100.94     Mostly Cloudy
17:00 20.0 13.0 64 16 13 32.2 100.89     Mostly Cloudy
18:00 18.8 15.1 79 14 15 32.2 100.87     Mostly Cloudy
19:00 17.9 15.8 88 15 17 24.1 100.87     Mostly Cloudy
20:00 17.9 15.4 85 15 20 24.1 100.86     Mainly Clear
21:00 16.9 13.1 78 15 9 32.2 100.86     Mainly Clear
22:00 16.6 12.4 76 14 15 32.2 100.87     Mostly Cloudy
23:00 17.1 11.1 68 34 7 32.2 100.89     Mostly Cloudy

Notes on Data Quality.

Legend

  • E = Estimated
  • M = Missing
  • NA = Not Available
  • ‡ = Partner data that is not subject to review by the National Climate Archives
Date modified: